Year,Month,Day,Hour,Minute,Value (Times are PST for temperature in C)
2011,04,23,00,00,5.60
2011,04,23,00,01,5.60
2011,04,23,00,02,5.60
2011,04,23,00,03,5.60
2011,04,23,00,04,5.50
2011,04,23,00,05,5.50
2011,04,23,00,06,5.50
2011,04,23,00,07,5.50
2011,04,23,00,08,5.40
2011,04,23,00,09,5.40
2011,04,23,00,10,5.40
2011,04,23,00,11,5.40
2011,04,23,00,12,5.30
2011,04,23,00,13,5.30
2011,04,23,00,14,5.30
2011,04,23,00,15,5.30
2011,04,23,00,16,5.20
2011,04,23,00,17,5.20
2011,04,23,00,18,5.20
2011,04,23,00,19,5.20
2011,04,23,00,20,5.20
2011,04,23,00,21,5.20
2011,04,23,00,22,5.10
2011,04,23,00,23,5.10
2011,04,23,00,24,5.10
2011,04,23,00,25,5.10
2011,04,23,00,26,5.10
2011,04,23,00,27,5.00
2011,04,23,00,28,5.00
2011,04,23,00,29,5.00
2011,04,23,00,30,4.90
2011,04,23,00,31,4.90
2011,04,23,00,32,4.80
2011,04,23,00,33,4.80
2011,04,23,00,34,4.80
2011,04,23,00,35,4.80
2011,04,23,00,36,4.70
2011,04,23,00,37,4.70
2011,04,23,00,38,4.70
2011,04,23,00,39,4.70
2011,04,23,00,40,4.60
2011,04,23,00,41,4.60
2011,04,23,00,42,4.60
2011,04,23,00,43,4.60
2011,04,23,00,44,4.60
2011,04,23,00,45,4.60
2011,04,23,00,46,4.60
2011,04,23,00,47,4.60
2011,04,23,00,48,4.60
2011,04,23,00,49,4.60
2011,04,23,00,50,4.60
2011,04,23,00,51,4.60
2011,04,23,00,52,4.60
2011,04,23,00,53,4.60
2011,04,23,00,54,4.60
2011,04,23,00,55,4.60
2011,04,23,00,56,4.60
2011,04,23,00,57,4.60
2011,04,23,00,58,4.60
2011,04,23,00,59,4.60
2011,04,23,01,00,4.50
2011,04,23,01,01,4.50
2011,04,23,01,02,4.50
2011,04,23,01,03,4.50
2011,04,23,01,04,4.50
2011,04,23,01,05,4.50
2011,04,23,01,06,4.50
2011,04,23,01,07,4.50
2011,04,23,01,08,4.40
2011,04,23,01,09,4.40
2011,04,23,01,10,4.40
2011,04,23,01,11,4.40
2011,04,23,01,12,4.30
2011,04,23,01,13,4.30
2011,04,23,01,14,4.30
2011,04,23,01,15,4.20
2011,04,23,01,16,4.20
2011,04,23,01,17,4.20
2011,04,23,01,18,4.20
2011,04,23,01,19,4.10
2011,04,23,01,20,4.10
2011,04,23,01,21,4.10
2011,04,23,01,22,4.10
2011,04,23,01,23,4.10
2011,04,23,01,24,4.10
2011,04,23,01,25,4.00
2011,04,23,01,26,4.00
2011,04,23,01,27,4.00
2011,04,23,01,28,3.90
2011,04,23,01,29,3.90
2011,04,23,01,30,3.90
2011,04,23,01,31,3.90
2011,04,23,01,32,3.90
2011,04,23,01,33,3.80
2011,04,23,01,34,3.80
2011,04,23,01,35,3.80
2011,04,23,01,36,3.80
2011,04,23,01,37,3.70
2011,04,23,01,38,3.70
2011,04,23,01,39,3.70
2011,04,23,01,40,3.70
2011,04,23,01,41,3.70
2011,04,23,01,42,3.70
2011,04,23,01,43,3.70
2011,04,23,01,44,3.70
2011,04,23,01,45,3.70
2011,04,23,01,46,3.70
2011,04,23,01,47,3.70
2011,04,23,01,48,3.70
2011,04,23,01,49,3.70
2011,04,23,01,50,3.60
2011,04,23,01,51,3.60
2011,04,23,01,52,3.60
2011,04,23,01,53,3.60
2011,04,23,01,54,3.60
2011,04,23,01,55,3.60
2011,04,23,01,56,3.60
2011,04,23,01,57,3.60
2011,04,23,01,58,3.50
2011,04,23,01,59,3.50
2011,04,23,02,00,3.50
2011,04,23,02,01,3.50
2011,04,23,02,02,3.50
2011,04,23,02,03,3.60
2011,04,23,02,04,3.60
2011,04,23,02,05,3.50
2011,04,23,02,06,3.60
2011,04,23,02,07,3.50
2011,04,23,02,08,3.60
2011,04,23,02,09,3.60
2011,04,23,02,10,3.60
2011,04,23,02,11,3.60
2011,04,23,02,12,3.60
2011,04,23,02,13,3.60
2011,04,23,02,14,3.60
2011,04,23,02,15,3.60
2011,04,23,02,16,3.60
2011,04,23,02,17,3.60
2011,04,23,02,18,3.60
2011,04,23,02,19,3.60
2011,04,23,02,20,3.60
2011,04,23,02,21,3.60
2011,04,23,02,22,3.60
2011,04,23,02,23,3.60
2011,04,23,02,24,3.50
2011,04,23,02,25,3.50
2011,04,23,02,26,3.50
2011,04,23,02,27,3.50
2011,04,23,02,28,3.50
2011,04,23,02,29,3.50
2011,04,23,02,30,3.50
2011,04,23,02,31,3.40
2011,04,23,02,32,3.40
2011,04,23,02,33,3.40
2011,04,23,02,34,3.40
2011,04,23,02,35,3.40
2011,04,23,02,36,3.30
2011,04,23,02,37,3.30
2011,04,23,02,38,3.30
2011,04,23,02,39,3.30
2011,04,23,02,40,3.30
2011,04,23,02,41,3.30
2011,04,23,02,42,3.20
2011,04,23,02,43,3.20
2011,04,23,02,44,3.20
2011,04,23,02,45,3.20
2011,04,23,02,46,3.20
2011,04,23,02,47,3.20
2011,04,23,02,48,3.10
2011,04,23,02,49,3.10
2011,04,23,02,50,3.10
2011,04,23,02,51,3.10
2011,04,23,02,52,3.10
2011,04,23,02,53,3.10
2011,04,23,02,54,3.10
2011,04,23,02,55,3.10
2011,04,23,02,56,3.10
2011,04,23,02,57,3.10
2011,04,23,02,58,3.10
2011,04,23,02,59,3.10
2011,04,23,03,00,3.00
2011,04,23,03,01,3.00
2011,04,23,03,02,3.00
2011,04,23,03,03,2.90
2011,04,23,03,04,2.90
2011,04,23,03,05,2.90
2011,04,23,03,06,2.90
2011,04,23,03,07,2.80
2011,04,23,03,08,2.80
2011,04,23,03,09,2.80
2011,04,23,03,10,2.80
2011,04,23,03,11,2.80
2011,04,23,03,12,2.80
2011,04,23,03,13,2.80
2011,04,23,03,14,2.70
2011,04,23,03,15,2.70
2011,04,23,03,16,2.70
2011,04,23,03,17,2.70
2011,04,23,03,18,2.70
2011,04,23,03,19,2.80
2011,04,23,03,20,2.80
2011,04,23,03,21,2.80
2011,04,23,03,22,2.90
2011,04,23,03,23,2.90
2011,04,23,03,24,2.90
2011,04,23,03,25,2.90
2011,04,23,03,26,3.00
2011,04,23,03,27,3.00
2011,04,23,03,28,3.00
2011,04,23,03,29,3.10
2011,04,23,03,30,3.10
2011,04,23,03,31,3.10
2011,04,23,03,32,3.10
2011,04,23,03,33,3.10
2011,04,23,03,34,3.20
2011,04,23,03,35,3.20
2011,04,23,03,36,3.20
2011,04,23,03,37,3.30
2011,04,23,03,38,3.30
2011,04,23,03,39,3.40
2011,04,23,03,40,3.40
2011,04,23,03,41,3.40
2011,04,23,03,42,3.50
2011,04,23,03,43,3.50
2011,04,23,03,44,3.60
2011,04,23,03,45,3.60
2011,04,23,03,46,3.60
2011,04,23,03,47,3.60
2011,04,23,03,48,3.60
2011,04,23,03,49,3.60
2011,04,23,03,50,3.60
2011,04,23,03,51,3.60
2011,04,23,03,52,3.60
2011,04,23,03,53,3.60
2011,04,23,03,54,3.60
2011,04,23,03,55,3.60
2011,04,23,03,56,3.50
2011,04,23,03,57,3.50
2011,04,23,03,58,3.50
2011,04,23,03,59,3.50
2011,04,23,04,00,3.50
2011,04,23,04,01,3.50
2011,04,23,04,02,3.50
2011,04,23,04,03,3.40
2011,04,23,04,04,3.40
2011,04,23,04,05,3.40
2011,04,23,04,06,3.40
2011,04,23,04,07,3.30
2011,04,23,04,08,3.30
2011,04,23,04,09,3.30
2011,04,23,04,10,3.30
2011,04,23,04,11,3.30
2011,04,23,04,12,3.30
2011,04,23,04,13,3.20
2011,04,23,04,14,3.20
2011,04,23,04,15,3.20
2011,04,23,04,16,3.20
2011,04,23,04,17,3.20
2011,04,23,04,18,3.20
2011,04,23,04,19,3.20
2011,04,23,04,20,3.20
2011,04,23,04,21,3.20
2011,04,23,04,22,3.20
2011,04,23,04,23,3.20
2011,04,23,04,24,3.20
2011,04,23,04,25,3.20
2011,04,23,04,26,3.10
2011,04,23,04,27,3.10
2011,04,23,04,28,3.10
2011,04,23,04,29,3.00
2011,04,23,04,30,3.00
2011,04,23,04,31,2.90
2011,04,23,04,32,2.90
2011,04,23,04,33,2.90
2011,04,23,04,34,2.80
2011,04,23,04,35,2.80
2011,04,23,04,36,2.80
2011,04,23,04,37,2.80
2011,04,23,04,38,2.70
2011,04,23,04,39,2.70
2011,04,23,04,40,2.70
2011,04,23,04,41,2.70
2011,04,23,04,42,2.70
2011,04,23,04,43,2.70
2011,04,23,04,44,2.70
2011,04,23,04,45,2.70
2011,04,23,04,46,2.70
2011,04,23,04,47,2.70
2011,04,23,04,48,2.70
2011,04,23,04,49,2.70
2011,04,23,04,50,2.70
2011,04,23,04,51,2.70
2011,04,23,04,52,2.70
2011,04,23,04,53,2.70
2011,04,23,04,54,2.70
2011,04,23,04,55,2.70
2011,04,23,04,56,2.70
2011,04,23,04,57,2.70
2011,04,23,04,58,2.70
2011,04,23,04,59,2.70
2011,04,23,05,00,2.80
2011,04,23,05,01,2.80
2011,04,23,05,02,2.80
2011,04,23,05,03,2.80
2011,04,23,05,04,2.80
2011,04,23,05,05,2.80
2011,04,23,05,06,2.80
2011,04,23,05,07,2.80
2011,04,23,05,08,2.80
2011,04,23,05,09,2.80
2011,04,23,05,10,2.80
2011,04,23,05,11,2.80
2011,04,23,05,12,2.80
2011,04,23,05,13,2.80
2011,04,23,05,14,2.80
2011,04,23,05,15,2.80
2011,04,23,05,16,2.80
2011,04,23,05,17,2.80
2011,04,23,05,18,2.80
2011,04,23,05,19,2.80
2011,04,23,05,20,2.90
2011,04,23,05,21,2.90
2011,04,23,05,22,2.90
2011,04,23,05,23,2.80
2011,04,23,05,24,2.80
2011,04,23,05,25,2.80
2011,04,23,05,26,2.80
2011,04,23,05,27,2.80
2011,04,23,05,28,2.70
2011,04,23,05,29,2.70
2011,04,23,05,30,2.70
2011,04,23,05,31,2.70
2011,04,23,05,32,2.70
2011,04,23,05,33,2.70
2011,04,23,05,34,2.70
2011,04,23,05,35,2.70
2011,04,23,05,36,2.70
2011,04,23,05,37,2.70
2011,04,23,05,38,2.70
2011,04,23,05,39,2.70
2011,04,23,05,40,2.80
2011,04,23,05,41,2.80
2011,04,23,05,42,2.90
2011,04,23,05,43,2.90
2011,04,23,05,44,3.00
2011,04,23,05,45,3.00
2011,04,23,05,46,3.00
2011,04,23,05,47,3.10
2011,04,23,05,48,3.10
2011,04,23,05,49,3.10
2011,04,23,05,50,3.10
2011,04,23,05,51,3.10
2011,04,23,05,52,3.10
2011,04,23,05,53,3.10
2011,04,23,05,54,3.20
2011,04,23,05,55,3.20
2011,04,23,05,56,3.30
2011,04,23,05,57,3.40
2011,04,23,05,58,3.60
2011,04,23,05,59,3.70
2011,04,23,06,00,3.90
2011,04,23,06,01,4.00
2011,04,23,06,02,4.10
2011,04,23,06,03,4.20
2011,04,23,06,04,4.30
2011,04,23,06,05,4.50
2011,04,23,06,06,4.60
2011,04,23,06,07,4.60
2011,04,23,06,08,4.70
2011,04,23,06,09,4.70
2011,04,23,06,10,4.70
2011,04,23,06,11,4.80
2011,04,23,06,12,4.80
2011,04,23,06,13,4.80
2011,04,23,06,14,4.80
2011,04,23,06,15,4.90
2011,04,23,06,16,4.90
2011,04,23,06,17,4.90
2011,04,23,06,18,4.90
2011,04,23,06,19,4.90
2011,04,23,06,20,4.90
2011,04,23,06,21,4.90
2011,04,23,06,22,4.90
2011,04,23,06,23,4.90
2011,04,23,06,24,4.90
2011,04,23,06,25,4.90
2011,04,23,06,26,4.90
2011,04,23,06,27,4.90
2011,04,23,06,28,5.00
2011,04,23,06,29,5.00
2011,04,23,06,30,4.90
2011,04,23,06,31,4.90
2011,04,23,06,32,4.90
2011,04,23,06,33,4.90
2011,04,23,06,34,4.90
2011,04,23,06,35,4.90
2011,04,23,06,36,4.90
2011,04,23,06,37,5.00
2011,04,23,06,38,5.10
2011,04,23,06,39,5.10
2011,04,23,06,40,5.20
2011,04,23,06,41,5.20
2011,04,23,06,42,5.20
2011,04,23,06,43,5.30
2011,04,23,06,44,5.30
2011,04,23,06,45,5.40
2011,04,23,06,46,5.40
2011,04,23,06,47,5.50
2011,04,23,06,48,5.50
2011,04,23,06,49,5.60
2011,04,23,06,50,5.60
2011,04,23,06,51,5.60
2011,04,23,06,52,5.60
2011,04,23,06,53,5.70
2011,04,23,06,54,5.70
2011,04,23,06,55,5.70
2011,04,23,06,56,5.70
2011,04,23,06,57,5.70
2011,04,23,06,58,5.80
2011,04,23,06,59,5.80
2011,04,23,07,00,5.80
2011,04,23,07,01,5.80
2011,04,23,07,02,5.80
2011,04,23,07,03,5.90
2011,04,23,07,04,5.90
2011,04,23,07,05,5.90
2011,04,23,07,06,6.00
2011,04,23,07,07,6.00
2011,04,23,07,08,6.00
2011,04,23,07,09,6.00
2011,04,23,07,10,6.10
2011,04,23,07,11,6.10
2011,04,23,07,12,6.10
2011,04,23,07,13,6.20
2011,04,23,07,14,6.20
2011,04,23,07,15,6.20
2011,04,23,07,16,6.20
2011,04,23,07,17,6.20
2011,04,23,07,18,6.20
2011,04,23,07,19,6.20
2011,04,23,07,20,6.30
2011,04,23,07,21,6.30
2011,04,23,07,22,6.30
2011,04,23,07,23,6.30
2011,04,23,07,24,6.30
2011,04,23,07,25,6.40
2011,04,23,07,26,6.40
2011,04,23,07,27,6.40
2011,04,23,07,28,6.50
2011,04,23,07,29,6.50
2011,04,23,07,30,6.60
2011,04,23,07,31,6.60
2011,04,23,07,32,6.60
2011,04,23,07,33,6.70
2011,04,23,07,34,6.70
2011,04,23,07,35,6.70
2011,04,23,07,36,6.80
2011,04,23,07,37,6.80
2011,04,23,07,38,6.90
2011,04,23,07,39,7.00
2011,04,23,07,40,7.10
2011,04,23,07,41,7.10
2011,04,23,07,42,7.20
2011,04,23,07,43,7.20
2011,04,23,07,44,7.30
2011,04,23,07,45,7.30
2011,04,23,07,46,7.40
2011,04,23,07,47,7.40
2011,04,23,07,48,7.50
2011,04,23,07,49,7.60
2011,04,23,07,50,7.60
2011,04,23,07,51,7.70
2011,04,23,07,52,7.80
2011,04,23,07,53,7.80
2011,04,23,07,54,7.90
2011,04,23,07,55,7.90
2011,04,23,07,56,8.00
2011,04,23,07,57,8.00
2011,04,23,07,58,8.10
2011,04,23,07,59,8.10
2011,04,23,08,00,8.20
2011,04,23,08,01,8.20
2011,04,23,08,02,8.30
2011,04,23,08,03,8.30
2011,04,23,08,04,8.40
2011,04,23,08,05,8.40
2011,04,23,08,06,8.50
2011,04,23,08,07,8.50
2011,04,23,08,08,8.60
2011,04,23,08,09,8.60
2011,04,23,08,10,8.70
2011,04,23,08,11,8.80
2011,04,23,08,12,8.80
2011,04,23,08,13,8.80
2011,04,23,08,14,8.90
2011,04,23,08,15,8.90
2011,04,23,08,16,8.90
2011,04,23,08,17,8.90
2011,04,23,08,18,8.90
2011,04,23,08,19,8.90
2011,04,23,08,20,8.90
2011,04,23,08,21,8.90
2011,04,23,08,22,9.00
2011,04,23,08,23,9.00
2011,04,23,08,24,9.00
2011,04,23,08,25,9.10
2011,04,23,08,26,9.10
2011,04,23,08,27,9.20
2011,04,23,08,28,9.20
2011,04,23,08,29,9.20
2011,04,23,08,30,9.30
2011,04,23,08,31,9.30
2011,04,23,08,32,9.40
2011,04,23,08,33,9.40
2011,04,23,08,34,9.40
2011,04,23,08,35,9.40
2011,04,23,08,36,9.30
2011,04,23,08,37,9.30
2011,04,23,08,38,9.30
2011,04,23,08,39,9.30
2011,04,23,08,40,9.30
2011,04,23,08,41,9.30
2011,04,23,08,42,9.30
2011,04,23,08,43,9.30
2011,04,23,08,44,9.30
2011,04,23,08,45,9.30
2011,04,23,08,46,9.30
2011,04,23,08,47,9.40
2011,04,23,08,48,9.30
2011,04,23,08,49,9.30
2011,04,23,08,50,9.30
2011,04,23,08,51,9.30
2011,04,23,08,52,9.30
2011,04,23,08,53,9.30
2011,04,23,08,54,9.30
2011,04,23,08,55,9.30
2011,04,23,08,56,9.30
2011,04,23,08,57,9.40
2011,04,23,08,58,9.40
2011,04,23,08,59,9.50
2011,04,23,09,00,9.60
2011,04,23,09,01,9.60
2011,04,23,09,02,9.60
2011,04,23,09,03,9.60
2011,04,23,09,04,9.60
2011,04,23,09,05,9.60
2011,04,23,09,06,9.50
2011,04,23,09,07,9.50
2011,04,23,09,08,9.50
2011,04,23,09,09,9.50
2011,04,23,09,10,9.60
2011,04,23,09,11,9.60
2011,04,23,09,12,9.60
2011,04,23,09,13,9.60
2011,04,23,09,14,9.60
2011,04,23,09,15,9.60
2011,04,23,09,16,9.60
2011,04,23,09,17,9.50
2011,04,23,09,18,9.50
2011,04,23,09,19,9.50
2011,04,23,09,20,9.60
2011,04,23,09,21,9.60
2011,04,23,09,22,9.70
2011,04,23,09,23,9.70
2011,04,23,09,24,9.80
2011,04,23,09,25,9.90
2011,04,23,09,26,9.90
2011,04,23,09,27,9.90
2011,04,23,09,28,9.90
2011,04,23,09,29,10.00
2011,04,23,09,30,10.00
2011,04,23,09,31,10.10
2011,04,23,09,32,10.00
2011,04,23,09,33,10.00
2011,04,23,09,34,9.90
2011,04,23,09,35,9.90
2011,04,23,09,36,10.00
2011,04,23,09,37,10.00
2011,04,23,09,38,10.10
2011,04,23,09,39,10.10
2011,04,23,09,40,10.20
2011,04,23,09,41,10.20
2011,04,23,09,42,10.20
2011,04,23,09,43,10.20
2011,04,23,09,44,10.20
2011,04,23,09,45,10.20
2011,04,23,09,46,10.20
2011,04,23,09,47,10.30
2011,04,23,09,48,10.30
2011,04,23,09,49,10.40
2011,04,23,09,50,10.40
2011,04,23,09,51,10.40
2011,04,23,09,52,10.50
2011,04,23,09,53,10.50
2011,04,23,09,54,10.60
2011,04,23,09,55,10.60
2011,04,23,09,56,10.50
2011,04,23,09,57,10.40
2011,04,23,09,58,10.40
2011,04,23,09,59,10.40
2011,04,23,10,00,10.40
2011,04,23,10,01,10.50
2011,04,23,10,02,10.50
2011,04,23,10,03,10.50
2011,04,23,10,04,10.60
2011,04,23,10,05,10.60
2011,04,23,10,06,10.70
2011,04,23,10,07,10.70
2011,04,23,10,08,10.70
2011,04,23,10,09,10.80
2011,04,23,10,10,10.80
2011,04,23,10,11,10.80
2011,04,23,10,12,10.80
2011,04,23,10,13,10.80
2011,04,23,10,14,10.80
2011,04,23,10,15,10.80
2011,04,23,10,16,10.80
2011,04,23,10,17,10.90
2011,04,23,10,18,11.00
2011,04,23,10,19,11.10
2011,04,23,10,20,11.10
2011,04,23,10,21,11.20
2011,04,23,10,22,11.20
2011,04,23,10,23,11.10
2011,04,23,10,24,11.20
2011,04,23,10,25,11.20
2011,04,23,10,26,11.20
2011,04,23,10,27,11.30
2011,04,23,10,28,11.30
2011,04,23,10,29,11.20
2011,04,23,10,30,11.20
2011,04,23,10,31,11.20
2011,04,23,10,32,11.20
2011,04,23,10,33,11.20
2011,04,23,10,34,11.10
2011,04,23,10,35,11.00
2011,04,23,10,36,11.00
2011,04,23,10,37,10.90
2011,04,23,10,38,10.90
2011,04,23,10,39,10.90
2011,04,23,10,40,10.90
2011,04,23,10,41,10.90
2011,04,23,10,42,10.90
2011,04,23,10,43,10.90
2011,04,23,10,44,10.90
2011,04,23,10,45,10.90
2011,04,23,10,46,10.90
2011,04,23,10,47,10.90
2011,04,23,10,48,11.00
2011,04,23,10,49,11.00
2011,04,23,10,50,11.10
2011,04,23,10,51,11.10
2011,04,23,10,52,11.10
2011,04,23,10,53,11.10
2011,04,23,10,54,11.10
2011,04,23,10,55,11.20
2011,04,23,10,56,11.20
2011,04,23,10,57,11.20
2011,04,23,10,58,11.30
2011,04,23,10,59,11.30
2011,04,23,11,00,11.30
2011,04,23,11,01,11.30
2011,04,23,11,02,11.40
2011,04,23,11,03,11.40
2011,04,23,11,04,11.40
2011,04,23,11,05,11.40
2011,04,23,11,06,11.50
2011,04,23,11,07,11.60
2011,04,23,11,08,11.60
2011,04,23,11,09,11.70
2011,04,23,11,10,11.70
2011,04,23,11,11,11.80
2011,04,23,11,12,11.80
2011,04,23,11,13,11.90
2011,04,23,11,14,11.90
2011,04,23,11,15,11.90
2011,04,23,11,16,11.90
2011,04,23,11,17,11.90
2011,04,23,11,18,11.90
2011,04,23,11,19,11.90
2011,04,23,11,20,11.90
2011,04,23,11,21,11.90
2011,04,23,11,22,12.00
2011,04,23,11,23,12.00
2011,04,23,11,24,12.00
2011,04,23,11,25,12.00
2011,04,23,11,26,12.00
2011,04,23,11,27,12.00
2011,04,23,11,28,12.10
2011,04,23,11,29,12.20
2011,04,23,11,30,12.20
2011,04,23,11,31,12.20
2011,04,23,11,32,12.10
2011,04,23,11,33,12.10
2011,04,23,11,34,12.00
2011,04,23,11,35,12.00
2011,04,23,11,36,11.90
2011,04,23,11,37,11.90
2011,04,23,11,38,11.90
2011,04,23,11,39,11.90
2011,04,23,11,40,11.80
2011,04,23,11,41,11.90
2011,04,23,11,42,11.90
2011,04,23,11,43,11.90
2011,04,23,11,44,12.00
2011,04,23,11,45,12.00
2011,04,23,11,46,12.10
2011,04,23,11,47,12.10
2011,04,23,11,48,12.10
2011,04,23,11,49,12.00
2011,04,23,11,50,12.00
2011,04,23,11,51,11.90
2011,04,23,11,52,12.00
2011,04,23,11,53,12.00
2011,04,23,11,54,12.10
2011,04,23,11,55,12.10
2011,04,23,11,56,12.10
2011,04,23,11,57,12.10
2011,04,23,11,58,12.10
2011,04,23,11,59,12.10
2011,04,23,12,00,12.20
2011,04,23,12,01,12.20
2011,04,23,12,02,12.20
2011,04,23,12,03,12.20
2011,04,23,12,04,12.20
2011,04,23,12,05,12.20
2011,04,23,12,06,12.20
2011,04,23,12,07,12.20
2011,04,23,12,08,12.20
2011,04,23,12,09,12.30
2011,04,23,12,10,12.30
2011,04,23,12,11,12.30
2011,04,23,12,12,12.30
2011,04,23,12,13,12.30
2011,04,23,12,14,12.30
2011,04,23,12,15,12.30
2011,04,23,12,16,12.30
2011,04,23,12,17,12.30
2011,04,23,12,18,12.30
2011,04,23,12,19,12.40
2011,04,23,12,20,12.40
2011,04,23,12,21,12.40
2011,04,23,12,22,12.40
2011,04,23,12,23,12.40
2011,04,23,12,24,12.50
2011,04,23,12,25,12.60
2011,04,23,12,26,12.70
2011,04,23,12,27,12.70
2011,04,23,12,28,12.70
2011,04,23,12,29,12.70
2011,04,23,12,30,12.70
2011,04,23,12,31,12.60
2011,04,23,12,32,12.60
2011,04,23,12,33,12.50
2011,04,23,12,34,12.60
2011,04,23,12,35,12.60
2011,04,23,12,36,12.60
2011,04,23,12,37,12.70
2011,04,23,12,38,12.80
2011,04,23,12,39,12.90
2011,04,23,12,40,13.00
2011,04,23,12,41,13.10
2011,04,23,12,42,13.10
2011,04,23,12,43,13.10
2011,04,23,12,44,13.20
2011,04,23,12,45,13.20
2011,04,23,12,46,13.10
2011,04,23,12,47,13.00
2011,04,23,12,48,13.00
2011,04,23,12,49,12.90
2011,04,23,12,50,12.90
2011,04,23,12,51,13.00
2011,04,23,12,52,13.00
2011,04,23,12,53,13.10
2011,04,23,12,54,13.20
2011,04,23,12,55,13.30
2011,04,23,12,56,13.30
2011,04,23,12,57,13.40
2011,04,23,12,58,13.40
2011,04,23,12,59,13.40
2011,04,23,13,00,13.30
2011,04,23,13,01,13.20
2011,04,23,13,02,13.20
2011,04,23,13,03,13.20
2011,04,23,13,04,13.30
2011,04,23,13,05,13.30
2011,04,23,13,06,13.40
2011,04,23,13,07,13.50
2011,04,23,13,08,13.60
2011,04,23,13,09,13.60
2011,04,23,13,10,13.70
2011,04,23,13,11,13.80
2011,04,23,13,12,13.80
2011,04,23,13,13,13.80
2011,04,23,13,14,13.80
2011,04,23,13,15,13.90
2011,04,23,13,16,13.90
2011,04,23,13,17,13.90
2011,04,23,13,18,13.90
2011,04,23,13,19,14.00
2011,04,23,13,20,14.00
2011,04,23,13,21,14.00
2011,04,23,13,22,14.10
2011,04,23,13,23,14.10
2011,04,23,13,24,14.10
2011,04,23,13,25,14.10
2011,04,23,13,26,14.20
2011,04,23,13,27,14.20
2011,04,23,13,28,14.30
2011,04,23,13,29,14.40
2011,04,23,13,30,14.50
2011,04,23,13,31,14.50
2011,04,23,13,32,14.60
2011,04,23,13,33,14.60
2011,04,23,13,34,14.60
2011,04,23,13,35,14.60
2011,04,23,13,36,14.60
2011,04,23,13,37,14.60
2011,04,23,13,38,14.40
2011,04,23,13,39,14.30
2011,04,23,13,40,14.30
2011,04,23,13,41,14.30
2011,04,23,13,42,14.30
2011,04,23,13,43,14.30
2011,04,23,13,44,14.30
2011,04,23,13,45,14.30
2011,04,23,13,46,14.30
2011,04,23,13,47,14.40
2011,04,23,13,48,14.40
2011,04,23,13,49,14.50
2011,04,23,13,50,14.60
2011,04,23,13,51,14.60
2011,04,23,13,52,14.60
2011,04,23,13,53,14.70
2011,04,23,13,54,14.80
2011,04,23,13,55,14.80
2011,04,23,13,56,14.80
2011,04,23,13,57,14.70
2011,04,23,13,58,14.60
2011,04,23,13,59,14.60
2011,04,23,14,00,14.60
2011,04,23,14,01,14.60
2011,04,23,14,02,14.60
2011,04,23,14,03,14.70
2011,04,23,14,04,14.70
2011,04,23,14,05,14.70
2011,04,23,14,06,14.80
2011,04,23,14,07,14.80
2011,04,23,14,08,14.90
2011,04,23,14,09,14.90
2011,04,23,14,10,14.80
2011,04,23,14,11,14.80
2011,04,23,14,12,14.60
2011,04,23,14,13,14.60
2011,04,23,14,14,14.60
2011,04,23,14,15,14.60
2011,04,23,14,16,14.60
2011,04,23,14,17,14.60
2011,04,23,14,18,14.70
2011,04,23,14,19,14.70
2011,04,23,14,20,14.80
2011,04,23,14,21,14.80
2011,04,23,14,22,14.90
2011,04,23,14,23,14.90
2011,04,23,14,24,15.00
2011,04,23,14,25,14.90
2011,04,23,14,26,14.90
2011,04,23,14,27,14.90
2011,04,23,14,28,14.80
2011,04,23,14,29,14.90
2011,04,23,14,30,14.90
2011,04,23,14,31,14.90
2011,04,23,14,32,14.80
2011,04,23,14,33,14.90
2011,04,23,14,34,14.90
2011,04,23,14,35,14.80
2011,04,23,14,36,14.80
2011,04,23,14,37,14.90
2011,04,23,14,38,15.00
2011,04,23,14,39,15.10
2011,04,23,14,40,15.20
2011,04,23,14,41,15.20
2011,04,23,14,42,15.20
2011,04,23,14,43,15.30
2011,04,23,14,44,15.30
2011,04,23,14,45,15.30
2011,04,23,14,46,15.30
2011,04,23,14,47,15.30
2011,04,23,14,48,15.40
2011,04,23,14,49,15.40
2011,04,23,14,50,15.40
2011,04,23,14,51,15.30
2011,04,23,14,52,15.30
2011,04,23,14,53,15.20
2011,04,23,14,54,15.20
2011,04,23,14,55,15.20
2011,04,23,14,56,15.20
2011,04,23,14,57,15.20
2011,04,23,14,58,15.20
2011,04,23,14,59,15.30
2011,04,23,15,00,15.40
2011,04,23,15,01,15.40
2011,04,23,15,02,15.40
2011,04,23,15,03,15.50
2011,04,23,15,04,15.50
2011,04,23,15,05,15.40
2011,04,23,15,06,15.50
2011,04,23,15,07,15.50
2011,04,23,15,08,15.60
2011,04,23,15,09,15.70
2011,04,23,15,10,15.70
2011,04,23,15,11,15.70
2011,04,23,15,12,15.70
2011,04,23,15,13,15.70
2011,04,23,15,14,15.60
2011,04,23,15,15,15.50
2011,04,23,15,16,15.30
2011,04,23,15,17,15.30
2011,04,23,15,18,15.30
2011,04,23,15,19,15.30
2011,04,23,15,20,15.40
2011,04,23,15,21,15.40
2011,04,23,15,22,15.40
2011,04,23,15,23,15.40
2011,04,23,15,24,15.50
2011,04,23,15,25,15.50
2011,04,23,15,26,15.60
2011,04,23,15,27,15.60
2011,04,23,15,28,15.60
2011,04,23,15,29,15.60
2011,04,23,15,30,15.60
2011,04,23,15,31,15.50
2011,04,23,15,32,15.50
2011,04,23,15,33,15.60
2011,04,23,15,34,15.60
2011,04,23,15,35,15.60
2011,04,23,15,36,15.70
2011,04,23,15,37,15.70
2011,04,23,15,38,15.70
2011,04,23,15,39,15.80
2011,04,23,15,40,15.90
2011,04,23,15,41,15.90
2011,04,23,15,42,16.00
2011,04,23,15,43,15.90
2011,04,23,15,44,15.90
2011,04,23,15,45,15.90
2011,04,23,15,46,15.90
2011,04,23,15,47,15.80
2011,04,23,15,48,15.70
2011,04,23,15,49,15.70
2011,04,23,15,50,15.60
2011,04,23,15,51,15.50
2011,04,23,15,52,15.50
2011,04,23,15,53,15.50
2011,04,23,15,54,15.50
2011,04,23,15,55,15.40
2011,04,23,15,56,15.30
2011,04,23,15,57,15.30
2011,04,23,15,58,15.30
2011,04,23,15,59,15.40
2011,04,23,16,00,15.40
2011,04,23,16,01,15.50
2011,04,23,16,02,15.60
2011,04,23,16,03,15.70
2011,04,23,16,04,15.80
2011,04,23,16,05,15.90
2011,04,23,16,06,15.90
2011,04,23,16,07,15.90
2011,04,23,16,08,15.90
2011,04,23,16,09,15.90
2011,04,23,16,10,15.90
2011,04,23,16,11,15.90
2011,04,23,16,12,15.90
2011,04,23,16,13,16.00
2011,04,23,16,14,16.00
2011,04,23,16,15,16.10
2011,04,23,16,16,16.10
2011,04,23,16,17,16.20
2011,04,23,16,18,16.20
2011,04,23,16,19,16.30
2011,04,23,16,20,16.40
2011,04,23,16,21,16.50
2011,04,23,16,22,16.60
2011,04,23,16,23,16.60
2011,04,23,16,24,16.60
2011,04,23,16,25,16.60
2011,04,23,16,26,16.50
2011,04,23,16,27,16.50
2011,04,23,16,28,16.40
2011,04,23,16,29,16.40
2011,04,23,16,30,16.30
2011,04,23,16,31,16.30
2011,04,23,16,32,16.40
2011,04,23,16,33,16.30
2011,04,23,16,34,16.30
2011,04,23,16,35,16.30
2011,04,23,16,36,16.40
2011,04,23,16,37,16.40
2011,04,23,16,38,16.50
2011,04,23,16,39,16.50
2011,04,23,16,40,16.40
2011,04,23,16,41,16.40
2011,04,23,16,42,16.50
2011,04,23,16,43,16.40
2011,04,23,16,44,16.40
2011,04,23,16,45,16.40
2011,04,23,16,46,16.30
2011,04,23,16,47,16.30
2011,04,23,16,48,16.20
2011,04,23,16,49,16.10
2011,04,23,16,50,16.10
2011,04,23,16,51,16.10
2011,04,23,16,52,16.10
2011,04,23,16,53,16.20
2011,04,23,16,54,16.20
2011,04,23,16,55,16.30
2011,04,23,16,56,16.30
2011,04,23,16,57,16.30
2011,04,23,16,58,16.40
2011,04,23,16,59,16.40
2011,04,23,17,00,16.40
2011,04,23,17,01,16.40
2011,04,23,17,02,16.40
2011,04,23,17,03,16.50
2011,04,23,17,04,16.50
2011,04,23,17,05,16.40
2011,04,23,17,06,16.50
2011,04,23,17,07,16.50
2011,04,23,17,08,16.60
2011,04,23,17,09,16.70
2011,04,23,17,10,16.70
2011,04,23,17,11,16.70
2011,04,23,17,12,16.70
2011,04,23,17,13,16.70
2011,04,23,17,14,16.60
2011,04,23,17,15,16.60
2011,04,23,17,16,16.50
2011,04,23,17,17,16.40
2011,04,23,17,18,16.40
2011,04,23,17,19,16.40
2011,04,23,17,20,16.40
2011,04,23,17,21,16.40
2011,04,23,17,22,16.30
2011,04,23,17,23,16.20
2011,04,23,17,24,16.20
2011,04,23,17,25,16.20
2011,04,23,17,26,16.10
2011,04,23,17,27,16.10
2011,04,23,17,28,16.10
2011,04,23,17,29,16.10
2011,04,23,17,30,16.10
2011,04,23,17,31,16.10
2011,04,23,17,32,16.10
2011,04,23,17,33,16.20
2011,04,23,17,34,16.30
2011,04,23,17,35,16.30
2011,04,23,17,36,16.30
2011,04,23,17,37,16.30
2011,04,23,17,38,16.30
2011,04,23,17,39,16.20
2011,04,23,17,40,16.20
2011,04,23,17,41,16.20
2011,04,23,17,42,16.20
2011,04,23,17,43,16.10
2011,04,23,17,44,16.10